STARLINK-3395, 51130

Orbit data source: Space-Track

STARLINK-3395, 51130 is a payload satellite owned by SpaceX/Seattle (US) in LEO that was launched on Wed, 19 Jan 2022 UTC via an FALCON 9 launch vehicle from the Air Force Eastern Test Range (AFETR). Payload-class satellites include a variety of spacecraft equipped with specific instruments for various scientific and technological missions. These include communications satellites like Starlink; space stations such as the ISS; scientific satellites like the Hubble; Earth observation satellites from companies like Planet Labs, Umbra, and HawkEye 360; GPS; miniature CubeSats for education and research; and military/defense satellites.

Loading next visibility...
Identifier
51130, 2022-005AC
Orbit
LEO
Country
Flag of USUS
Related business
Manufacturer
SpaceX/Seattle
Mission
Operational Commercial Communications
Bus & Motor
STARLINK, Unknown motor
Mass
297 kg wet, ~275 kg dry
Launch date (UTC)
2022-01-19 (4 years ago)
Launch vehicle
FALCON 9
Launch site
Air Force Eastern Test Range (AFETR)
Object type
Payload
Rocket body
Debris
Shape & HBR
Box + 1 Pan, 10.1 m
Radar Cross Section
13.562 m², Large (>1 m²)

Expand to show TLE details & history
Last TLE update: 14 hours ago

TLE from 14 hours ago
0 STARLINK-3395
1 51130U 22005AC  26094.24840670 -.00003131  00000-0 -17880-3 0  9998
2 51130  53.2188 184.3842 0001114  93.2703 266.8417 15.08826325232584
Epoch: 2026-04-04T05:57Z
TLE epoch observation values (Epoch: 2026-04-04T05:57:42.338Z)
Latitude
-0.00001°
Longitude
-97.61312°
Altitude
540.725 km
Speed
7.593 km/s
True Right ascension
12h 17m 32s
True Declination
0° 00' 00"
Sunlit
Object was in full shadow at epoch
Visualization orbit readout
Latitude
Unknown
Longitude
Unknown
Altitude
Unknown
Speed
Unknown
Apparent Right ascension
Unknown
Apparent Declination
Unknown
Sunlit
N/A
Visualization observer readout
Local Sidereal Time
01:22:49
Azimuth
Unknown
Elevation
Unknown
Doppler factor
Unknown
Orbital elements
Apogee altitude
540.801 km
Perigee altitude
539.259 km
Semi-major axis
6,918.167 km
Eccentricity
0.00011
Inclination
53.2188°
RAAN
184.3842°
Arg. of periapsis
93.2703°
True anomaly
266.82895°
Mean anomaly
266.8417°
Eccentric anomaly
266.83533°
Mean motion
3.77187 °/min
Orbital period
95.44 mins
BSTAR
-0.0001788
Loading maneuver chart data...
Computing Atmospheric mass density...
Loading historical data...
Loading historical data...
Loading historical data...
Loading historical data...
Loading historical data...
Loading historical data...
Loading historical data...

Documentation

Showing up to 5 results
|